Time,TemperatureF,DewpointF,PressureIn,WindDirection,WindDirectionDegrees,WindSpeedMPH,WindSpeedGustMPH,Humidity,HourlyPrecipIn,Conditions,Clouds,dailyrainin,SoftwareType,DateUTC
2013-06-25 00:00:00,72.4,66.6,29.62,WNW,293,0.2,0.2,82,0.00,,,0.00,WUHU216HW,2013-06-25 04:00:00,
2013-06-25 00:01:00,72.4,66.6,29.62,WNW,293,0.0,0.2,82,0.00,,,0.00,WUHU216HW,2013-06-25 04:01:00,
2013-06-25 00:02:00,72.4,66.6,29.62,WNW,293,0.0,0.2,82,0.00,,,0.00,WUHU216HW,2013-06-25 04:02:00,
2013-06-25 00:04:00,72.2,66.4,29.62,WNW,293,0.0,0.2,82,0.00,,,0.00,WUHU216HW,2013-06-25 04:04:00,
2013-06-25 00:09:00,72.2,66.4,29.61,WNW,293,0.4,0.4,82,0.00,,,0.00,WUHU216HW,2013-06-25 04:09:00,
2013-06-25 00:14:00,72.0,66.3,29.61,North,0,0.2,0.4,82,0.00,,,0.00,WUHU216HW,2013-06-25 04:14:00,
2013-06-25 00:19:00,72.0,66.3,29.61,WNW,293,0.0,0.4,82,0.00,,,0.00,WUHU216HW,2013-06-25 04:19:00,
2013-06-25 00:24:00,71.8,66.1,29.61,SE,135,0.0,0.0,82,0.00,,,0.00,WUHU216HW,2013-06-25 04:24:00,
2013-06-25 00:29:00,71.8,66.1,29.61,SE,135,0.0,0.0,82,0.00,,,0.00,WUHU216HW,2013-06-25 04:29:00,
2013-06-25 00:34:00,71.8,66.1,29.61,SE,135,0.0,0.0,82,0.00,,,0.00,WUHU216HW,2013-06-25 04:34:00,
2013-06-25 00:39:00,71.6,65.9,29.61,SE,135,0.0,0.0,82,0.00,,,0.00,WUHU216HW,2013-06-25 04:39:00,
2013-06-25 00:44:00,71.6,65.9,29.60,SE,135,0.0,0.0,82,0.00,,,0.00,WUHU216HW,2013-06-25 04:44:00,
2013-06-25 00:49:00,71.6,65.9,29.60,SE,135,0.0,0.0,82,0.00,,,0.00,WUHU216HW,2013-06-25 04:49:00,
2013-06-25 00:55:00,71.6,66.2,29.60,SE,135,0.0,0.0,83,0.00,,,0.00,WUHU216HW,2013-06-25 04:55:00,
2013-06-25 01:00:00,71.5,66.0,29.59,SE,135,0.0,0.0,83,0.00,,,0.00,WUHU216HW,2013-06-25 05:00:00,
2013-06-25 01:05:00,71.3,65.8,29.59,SE,135,0.0,0.0,83,0.00,,,0.00,WUHU216HW,2013-06-25 05:05:00,
2013-06-25 01:10:00,71.1,65.6,29.59,SE,135,0.0,0.0,83,0.00,,,0.00,WUHU216HW,2013-06-25 05:10:00,
2013-06-25 01:15:00,70.9,65.4,29.59,SE,135,0.0,0.0,83,0.00,,,0.00,WUHU216HW,2013-06-25 05:15:00,
2013-06-25 01:20:00,70.9,65.4,29.58,SE,135,0.0,0.0,83,0.00,,,0.00,WUHU216HW,2013-06-25 05:20:00,
2013-06-25 01:25:00,70.7,65.6,29.58,SE,135,0.0,0.0,84,0.00,,,0.00,WUHU216HW,2013-06-25 05:25:00,
2013-06-25 01:30:00,70.7,65.6,29.58,SE,135,0.0,0.0,84,0.00,,,0.00,WUHU216HW,2013-06-25 05:30:00,
2013-06-25 01:35:00,70.6,65.4,29.58,SE,135,0.0,0.0,84,0.00,,,0.00,WUHU216HW,2013-06-25 05:35:00,
2013-06-25 01:40:00,70.6,65.4,29.59,SE,135,0.0,0.0,84,0.00,,,0.00,WUHU216HW,2013-06-25 05:40:00,
2013-06-25 01:45:00,70.4,65.3,29.58,SE,135,0.0,0.0,84,0.00,,,0.00,WUHU216HW,2013-06-25 05:45:00,
2013-06-25 01:50:00,70.2,65.1,29.58,SE,135,0.0,0.0,84,0.00,,,0.00,WUHU216HW,2013-06-25 05:50:00,
2013-06-25 01:55:00,70.2,65.4,29.57,SE,135,0.0,0.0,85,0.00,,,0.00,WUHU216HW,2013-06-25 05:55:00,
2013-06-25 02:01:00,70.2,65.4,29.57,SE,135,0.0,0.0,85,0.00,,,0.00,WUHU216HW,2013-06-25 06:01:00,
2013-06-25 02:06:00,70.0,65.6,29.57,SE,135,0.4,0.4,86,0.00,,,0.00,WUHU216HW,2013-06-25 06:06:00,
2013-06-25 02:11:00,69.8,65.4,29.58,SE,135,0.2,0.4,86,0.00,,,0.00,WUHU216HW,2013-06-25 06:11:00,
2013-06-25 02:16:00,69.8,65.4,29.58,SE,135,0.0,0.4,86,0.00,,,0.00,WUHU216HW,2013-06-25 06:16:00,
2013-06-25 02:21:00,69.5,65.1,29.57,SE,135,0.0,0.2,86,0.00,,,0.00,WUHU216HW,2013-06-25 06:21:00,
2013-06-25 02:26:00,69.5,65.1,29.57,SE,135,0.0,0.2,86,0.00,,,0.00,WUHU216HW,2013-06-25 06:26:00,
2013-06-25 02:31:00,69.5,65.1,29.57,SE,135,0.0,0.0,86,0.00,,,0.00,WUHU216HW,2013-06-25 06:31:00,
2013-06-25 02:37:00,69.3,65.3,29.57,SE,135,0.2,0.2,87,0.00,,,0.00,WUHU216HW,2013-06-25 06:37:00,
2013-06-25 02:41:00,69.3,65.3,29.57,SE,135,0.0,0.4,87,0.00,,,0.00,WUHU216HW,2013-06-25 06:41:00,
2013-06-25 02:47:00,69.1,65.1,29.56,SE,135,0.0,0.4,87,0.00,,,0.00,WUHU216HW,2013-06-25 06:47:00,
2013-06-25 02:52:00,69.1,65.1,29.56,SE,135,0.0,0.0,87,0.00,,,0.00,WUHU216HW,2013-06-25 06:52:00,
2013-06-25 02:57:00,69.1,65.1,29.56,SE,135,0.0,0.0,87,0.00,,,0.00,WUHU216HW,2013-06-25 06:57:00,
2013-06-25 03:02:00,68.9,64.9,29.56,SE,135,0.4,0.4,87,0.00,,,0.00,WUHU216HW,2013-06-25 07:02:00,
2013-06-25 03:07:00,68.8,65.1,29.57,SE,135,0.0,0.4,88,0.00,,,0.00,WUHU216HW,2013-06-25 07:07:00,
2013-06-25 03:12:00,68.8,65.1,29.57,SE,135,0.0,0.4,88,0.00,,,0.00,WUHU216HW,2013-06-25 07:12:00,
2013-06-25 03:17:00,68.6,64.9,29.57,SE,135,0.0,0.0,88,0.00,,,0.00,WUHU216HW,2013-06-25 07:17:00,
2013-06-25 03:22:00,68.4,64.7,29.57,SE,135,0.0,0.0,88,0.00,,,0.00,WUHU216HW,2013-06-25 07:22:00,
2013-06-25 03:28:00,68.4,64.7,29.57,SW,219,0.6,0.9,88,0.00,,,0.00,WUHU216HW,2013-06-25 07:28:00,
2013-06-25 03:33:00,68.4,64.7,29.57,SW,225,0.7,0.9,88,0.00,,,0.00,WUHU216HW,2013-06-25 07:33:00,
2013-06-25 03:38:00,68.2,64.5,29.57,NW,315,0.0,0.7,88,0.00,,,0.00,WUHU216HW,2013-06-25 07:38:00,
2013-06-25 03:43:00,68.2,64.5,29.57,NW,315,0.5,0.7,88,0.00,,,0.00,WUHU216HW,2013-06-25 07:43:00,
2013-06-25 03:48:00,68.0,64.4,29.57,NW,315,0.2,0.7,88,0.00,,,0.00,WUHU216HW,2013-06-25 07:48:00,
2013-06-25 03:53:00,68.0,64.4,29.57,NW,315,0.0,0.2,88,0.00,,,0.00,WUHU216HW,2013-06-25 07:53:00,
2013-06-25 03:58:00,67.9,64.2,29.57,NW,315,0.4,0.4,88,0.00,,,0.00,WUHU216HW,2013-06-25 07:58:00,
2013-06-25 04:03:00,67.7,64.3,29.57,NW,315,0.2,0.4,89,0.00,,,0.00,WUHU216HW,2013-06-25 08:03:00,
2013-06-25 04:08:00,67.7,64.3,29.57,NW,315,0.3,0.4,89,0.00,,,0.00,WUHU216HW,2013-06-25 08:08:00,
2013-06-25 04:13:00,67.5,64.1,29.58,NW,315,0.0,0.4,89,0.00,,,0.00,WUHU216HW,2013-06-25 08:13:00,
2013-06-25 04:19:00,67.5,64.1,29.58,NW,315,0.0,0.2,89,0.00,,,0.00,WUHU216HW,2013-06-25 08:19:00,
2013-06-25 04:24:00,67.3,63.9,29.58,NW,315,0.0,0.0,89,0.00,,,0.00,WUHU216HW,2013-06-25 08:24:00,
2013-06-25 04:29:00,67.3,63.6,29.58,WNW,293,0.0,0.0,88,0.00,,,0.00,WUHU216HW,2013-06-25 08:29:00,
2013-06-25 04:34:00,67.3,63.6,29.57,WNW,293,0.0,0.0,88,0.00,,,0.00,WUHU216HW,2013-06-25 08:34:00,
2013-06-25 04:39:00,67.3,63.6,29.57,WNW,293,0.0,0.0,88,0.00,,,0.00,WUHU216HW,2013-06-25 08:39:00,
2013-06-25 04:44:00,67.3,63.6,29.57,WNW,293,0.0,0.0,88,0.00,,,0.00,WUHU216HW,2013-06-25 08:44:00,
2013-06-25 04:49:00,67.1,63.5,29.56,WNW,293,0.0,0.0,88,0.00,,,0.00,WUHU216HW,2013-06-25 08:49:00,
2013-06-25 04:54:00,67.1,63.7,29.56,WNW,293,0.0,0.0,89,0.00,,,0.00,WUHU216HW,2013-06-25 08:54:00,
2013-06-25 04:59:00,67.0,63.5,29.56,WNW,293,0.7,0.7,89,0.00,,,0.00,WUHU216HW,2013-06-25 08:59:00,
2013-06-25 05:05:00,66.8,63.4,29.56,WNW,293,0.4,0.7,89,0.00,,,0.00,WUHU216HW,2013-06-25 09:05:00,
2013-06-25 05:10:00,66.6,63.5,29.56,WNW,293,0.0,0.4,90,0.00,,,0.00,WUHU216HW,2013-06-25 09:10:00,
2013-06-25 05:15:00,66.6,63.5,29.56,WNW,293,0.0,0.2,90,0.00,,,0.00,WUHU216HW,2013-06-25 09:15:00,
2013-06-25 05:20:00,66.6,63.5,29.56,WNW,293,0.0,0.0,90,0.00,,,0.00,WUHU216HW,2013-06-25 09:20:00,
2013-06-25 05:25:00,66.4,63.4,29.56,WNW,293,0.0,0.0,90,0.00,,,0.00,WUHU216HW,2013-06-25 09:25:00,
2013-06-25 05:30:00,66.4,63.4,29.56,WNW,293,0.0,0.0,90,0.00,,,0.00,WUHU216HW,2013-06-25 09:30:00,
2013-06-25 05:35:00,66.2,63.2,29.56,WNW,293,0.0,0.0,90,0.00,,,0.00,WUHU216HW,2013-06-25 09:35:00,
2013-06-25 05:40:00,66.4,63.4,29.56,WNW,293,0.0,0.4,90,0.00,,,0.00,WUHU216HW,2013-06-25 09:40:00,
2013-06-25 05:45:00,66.4,63.4,29.56,WNW,293,0.4,0.4,90,0.00,,,0.00,WUHU216HW,2013-06-25 09:45:00,
2013-06-25 05:50:00,66.6,63.5,29.56,WNW,293,0.0,0.4,90,0.00,,,0.00,WUHU216HW,2013-06-25 09:50:00,
2013-06-25 05:55:00,66.6,63.5,29.57,WNW,293,0.0,0.4,90,0.00,,,0.00,WUHU216HW,2013-06-25 09:55:00,
2013-06-25 06:01:00,66.6,63.5,29.57,WNW,293,0.0,0.0,90,0.00,,,0.00,WUHU216HW,2013-06-25 10:01:00,
2013-06-25 06:06:00,66.6,63.5,29.57,WNW,293,0.0,0.0,90,0.00,,,0.00,WUHU216HW,2013-06-25 10:06:00,
2013-06-25 06:11:00,66.6,63.5,29.57,WNW,293,0.0,0.0,90,0.00,,,0.00,WUHU216HW,2013-06-25 10:11:00,
2013-06-25 06:16:00,66.6,63.5,29.56,WNW,293,0.0,0.0,90,0.00,,,0.00,WUHU216HW,2013-06-25 10:16:00,
2013-06-25 06:21:00,66.8,63.7,29.56,WNW,293,0.0,0.0,90,0.00,,,0.00,WUHU216HW,2013-06-25 10:21:00,
2013-06-25 06:26:00,66.8,63.7,29.56,WNW,293,0.0,0.2,90,0.00,,,0.00,WUHU216HW,2013-06-25 10:26:00,
2013-06-25 06:31:00,67.0,64.2,29.56,WNW,293,0.0,0.2,91,0.00,,,0.00,WUHU216HW,2013-06-25 10:31:00,
2013-06-25 06:36:00,67.1,64.4,29.56,WNW,293,0.0,0.0,91,0.00,,,0.00,WUHU216HW,2013-06-25 10:36:00,
2013-06-25 06:41:00,67.1,64.1,29.56,WNW,293,0.0,0.0,90,0.00,,,0.00,WUHU216HW,2013-06-25 10:41:00,
2013-06-25 06:46:00,67.3,64.5,29.56,WNW,293,0.0,0.0,91,0.00,,,0.00,WUHU216HW,2013-06-25 10:46:00,
2013-06-25 06:52:00,67.7,64.9,29.56,WNW,293,0.0,0.0,91,0.00,,,0.00,WUHU216HW,2013-06-25 10:52:00,
2013-06-25 06:57:00,67.9,65.1,29.56,NW,315,0.0,0.0,91,0.00,,,0.00,WUHU216HW,2013-06-25 10:57:00,
2013-06-25 07:02:00,68.2,65.4,29.56,NW,315,0.0,0.0,91,0.00,,,0.00,WUHU216HW,2013-06-25 11:02:00,
2013-06-25 07:07:00,68.4,65.6,29.56,NW,315,0.0,0.0,91,0.00,,,0.00,WUHU216HW,2013-06-25 11:07:00,
2013-06-25 07:12:00,68.8,66.0,29.57,NW,315,0.2,0.2,91,0.00,,,0.00,WUHU216HW,2013-06-25 11:12:00,
2013-06-25 07:17:00,68.9,65.9,29.57,NW,315,0.0,0.2,90,0.00,,,0.00,WUHU216HW,2013-06-25 11:17:00,
2013-06-25 07:22:00,69.1,66.1,29.56,NW,315,0.2,0.2,90,0.00,,,0.00,WUHU216HW,2013-06-25 11:22:00,
2013-06-25 07:27:00,69.3,66.2,29.56,WNW,293,0.4,0.4,90,0.00,,,0.00,WUHU216HW,2013-06-25 11:27:00,
2013-06-25 07:32:00,69.8,66.4,29.56,WNW,293,0.0,0.4,89,0.00,,,0.00,WUHU216HW,2013-06-25 11:32:00,
2013-06-25 07:37:00,70.0,66.6,29.56,WNW,293,0.0,0.4,89,0.00,,,0.00,WUHU216HW,2013-06-25 11:37:00,
2013-06-25 07:43:00,70.4,66.6,29.56,NE,45,0.4,0.4,88,0.00,,,0.00,WUHU216HW,2013-06-25 11:43:00,
2013-06-25 07:48:00,70.6,66.8,29.56,ENE,68,0.4,0.7,88,0.00,,,0.00,WUHU216HW,2013-06-25 11:48:00,
2013-06-25 07:53:00,70.7,67.0,29.56,SW,225,0.4,0.7,88,0.00,,,0.00,WUHU216HW,2013-06-25 11:53:00,
2013-06-25 07:58:00,71.1,66.7,29.56,NNW,338,0.4,0.7,86,0.00,,,0.00,WUHU216HW,2013-06-25 11:58:00,
2013-06-25 08:03:00,71.5,67.1,29.56,WSW,248,0.9,0.9,86,0.00,,,0.00,WUHU216HW,2013-06-25 12:03:00,
2013-06-25 08:08:00,71.8,67.1,29.56,SSE,158,0.0,0.9,85,0.00,,,0.00,WUHU216HW,2013-06-25 12:08:00,
2013-06-25 08:13:00,72.0,67.2,29.56,WNW,293,0.4,0.9,85,0.00,,,0.00,WUHU216HW,2013-06-25 12:13:00,
2013-06-25 08:18:00,72.4,67.2,29.55,East,90,0.4,0.9,84,0.00,,,0.00,WUHU216HW,2013-06-25 12:18:00,
2013-06-25 08:23:00,72.5,67.4,29.55,ESE,106,0.9,1.1,84,0.00,,,0.00,WUHU216HW,2013-06-25 12:23:00,
2013-06-25 08:28:00,72.9,67.8,29.55,NNW,338,0.2,1.1,84,0.00,,,0.00,WUHU216HW,2013-06-25 12:28:00,
2013-06-25 08:33:00,73.3,68.1,29.55,NNW,338,0.0,0.4,84,0.00,,,0.00,WUHU216HW,2013-06-25 12:33:00,
2013-06-25 08:38:00,73.4,68.3,29.55,NNW,338,0.3,0.4,84,0.00,,,0.00,WUHU216HW,2013-06-25 12:38:00,
2013-06-25 08:43:00,73.8,68.7,29.55,NNW,338,0.4,0.4,84,0.00,,,0.00,WUHU216HW,2013-06-25 12:43:00,
2013-06-25 08:49:00,74.0,68.5,29.55,NNW,338,0.2,0.4,83,0.00,,,0.00,WUHU216HW,2013-06-25 12:49:00,
2013-06-25 08:54:00,74.3,68.9,29.55,South,180,0.2,0.4,83,0.00,,,0.00,WUHU216HW,2013-06-25 12:54:00,
2013-06-25 08:59:00,74.7,69.0,29.55,SSW,203,1.3,1.3,82,0.00,,,0.00,WUHU216HW,2013-06-25 12:59:00,
2013-06-25 09:04:00,75.2,69.1,29.55,ESE,113,1.6,2.0,81,0.00,,,0.00,WUHU216HW,2013-06-25 13:04:00,
2013-06-25 09:09:00,75.6,69.1,29.54,ESE,113,1.1,2.0,80,0.00,,,0.00,WUHU216HW,2013-06-25 13:09:00,
2013-06-25 09:14:00,76.0,69.0,29.54,West,270,1.8,1.8,79,0.00,,,0.00,WUHU216HW,2013-06-25 13:14:00,
2013-06-25 09:19:00,76.3,69.4,29.54,NNE,23,0.7,1.8,79,0.00,,,0.00,WUHU216HW,2013-06-25 13:19:00,
2013-06-25 09:24:00,76.7,69.3,29.54,SW,234,0.9,1.8,78,0.00,,,0.00,WUHU216HW,2013-06-25 13:24:00,
2013-06-25 09:29:00,77.0,69.7,29.54,South,184,1.4,2.0,78,0.00,,,0.00,WUHU216HW,2013-06-25 13:29:00,
2013-06-25 09:34:00,77.4,69.6,29.54,SW,225,1.1,2.0,77,0.00,,,0.00,WUHU216HW,2013-06-25 13:34:00,
2013-06-25 09:39:00,77.9,70.1,29.54,SW,225,0.4,1.3,77,0.00,,,0.00,WUHU216HW,2013-06-25 13:39:00,
2013-06-25 09:44:00,78.1,70.3,29.54,NNE,23,0.0,1.3,77,0.00,,,0.00,WUHU216HW,2013-06-25 13:44:00,
2013-06-25 09:49:00,78.5,70.3,29.54,WSW,248,0.7,1.6,76,0.00,,,0.00,WUHU216HW,2013-06-25 13:49:00,
2013-06-25 09:54:00,78.8,70.2,29.54,SSE,158,0.4,1.6,75,0.00,,,0.00,WUHU216HW,2013-06-25 13:54:00,
2013-06-25 09:59:00,79.6,70.9,29.54,WSW,248,1.1,1.8,75,0.00,,,0.00,WUHU216HW,2013-06-25 13:59:00,
2013-06-25 10:04:00,79.9,70.9,29.54,East,90,0.4,1.8,74,0.00,,,0.00,WUHU216HW,2013-06-25 14:04:00,
2013-06-25 10:10:00,80.8,71.4,29.54,SW,225,0.4,1.3,73,0.00,,,0.00,WUHU216HW,2013-06-25 14:10:00,
2013-06-25 10:15:00,81.7,72.2,29.54,SSW,203,0.4,1.6,73,0.00,,,0.00,WUHU216HW,2013-06-25 14:15:00,
2013-06-25 10:20:00,82.4,72.5,29.54,South,180,0.9,1.6,72,0.00,,,0.00,WUHU216HW,2013-06-25 14:20:00,
2013-06-25 10:25:00,84.1,72.8,29.55,SW,225,1.6,1.6,69,0.00,,,0.00,WUHU216HW,2013-06-25 14:25:00,
2013-06-25 10:30:00,85.1,73.5,29.54,South,180,1.6,1.6,68,0.00,,,0.00,WUHU216HW,2013-06-25 14:30:00,
2013-06-25 10:35:00,86.0,73.8,29.55,SSE,158,1.8,1.8,67,0.00,,,0.00,WUHU216HW,2013-06-25 14:35:00,
2013-06-25 10:40:00,86.9,73.3,29.55,NNE,22,1.5,2.2,64,0.00,,,0.00,WUHU216HW,2013-06-25 14:40:00,
2013-06-25 10:45:00,87.5,73.8,29.55,SW,216,2.1,2.5,64,0.00,,,0.00,WUHU216HW,2013-06-25 14:45:00,
2013-06-25 10:50:00,87.7,73.5,29.55,West,259,0.9,2.5,63,0.00,,,0.00,WUHU216HW,2013-06-25 14:50:00,
2013-06-25 10:55:00,88.4,74.3,29.55,SSW,203,1.1,2.0,63,0.00,,,0.00,WUHU216HW,2013-06-25 14:55:00,
2013-06-25 11:00:00,88.9,74.3,29.55,SE,135,0.9,2.0,62,0.00,,,0.00,WUHU216HW,2013-06-25 15:00:00,
2013-06-25 11:05:00,89.6,73.4,29.55,SW,225,1.8,2.5,59,0.00,,,0.00,WUHU216HW,2013-06-25 15:05:00,
2013-06-25 11:10:00,90.0,73.8,29.55,SW,225,2.0,2.5,59,0.00,,,0.00,WUHU216HW,2013-06-25 15:10:00,
2013-06-25 11:16:00,90.4,73.5,29.55,SSW,202,1.2,3.4,58,0.00,,,0.00,WUHU216HW,2013-06-25 15:16:00,
2013-06-25 11:21:00,90.7,74.4,29.55,WSW,246,1.5,3.4,59,0.00,,,0.00,WUHU216HW,2013-06-25 15:21:00,
2013-06-25 11:26:00,91.4,74.0,29.55,SSW,203,1.8,2.5,57,0.00,,,0.00,WUHU216HW,2013-06-25 15:26:00,
2013-06-25 11:31:00,92.2,75.3,29.54,SSW,212,0.9,1.8,58,0.00,,,0.00,WUHU216HW,2013-06-25 15:31:00,
2013-06-25 11:36:00,92.5,75.6,29.54,SE,135,0.4,1.8,58,0.00,,,0.00,WUHU216HW,2013-06-25 15:36:00,
2013-06-25 11:41:00,93.6,76.1,29.54,WSW,239,1.5,3.1,57,0.00,,,0.00,WUHU216HW,2013-06-25 15:41:00,
2013-06-25 11:46:00,94.3,75.1,29.54,SSW,195,2.5,3.1,54,0.00,,,0.00,WUHU216HW,2013-06-25 15:46:00,
2013-06-25 11:51:00,94.9,75.6,29.54,South,180,0.9,2.9,54,0.00,,,0.00,WUHU216HW,2013-06-25 15:51:00,
2013-06-25 11:56:00,95.4,75.6,29.53,NNE,23,1.6,1.6,53,0.00,,,0.00,WUHU216HW,2013-06-25 15:56:00,
2013-06-25 12:01:00,95.2,76.0,29.53,SSE,158,0.4,1.8,54,0.00,,,0.00,WUHU216HW,2013-06-25 16:01:00,
2013-06-25 12:06:00,95.0,75.8,29.53,West,281,0.4,1.8,54,0.00,,,0.00,WUHU216HW,2013-06-25 16:06:00,
2013-06-25 12:11:00,95.0,74.7,29.53,NE,45,3.9,4.0,52,0.00,,,0.00,WUHU216HW,2013-06-25 16:11:00,
2013-06-25 12:16:00,95.4,74.5,29.53,SW,225,0.9,4.0,51,0.00,,,0.00,WUHU216HW,2013-06-25 16:16:00,
2013-06-25 12:21:00,95.9,73.8,29.53,NE,45,1.0,1.3,49,0.00,,,0.00,WUHU216HW,2013-06-25 16:21:00,
2013-06-25 12:26:00,96.3,73.5,29.53,WSW,248,1.8,1.8,48,0.00,,,0.00,WUHU216HW,2013-06-25 16:26:00,
2013-06-25 12:32:00,97.2,74.3,29.53,WSW,249,1.3,1.8,48,0.00,,,0.00,WUHU216HW,2013-06-25 16:32:00,
2013-06-25 12:37:00,97.0,74.1,29.52,SSW,206,0.7,2.5,48,0.00,,,0.00,WUHU216HW,2013-06-25 16:37:00,
2013-06-25 12:42:00,95.9,73.8,29.52,WSW,244,0.9,2.5,49,0.00,,,0.00,WUHU216HW,2013-06-25 16:42:00,
2013-06-25 12:47:00,95.2,73.8,29.52,SSW,193,1.3,1.6,50,0.00,,,0.00,WUHU216HW,2013-06-25 16:47:00,
2013-06-25 12:52:00,94.5,73.1,29.52,SSW,203,1.0,3.6,50,0.00,,,0.00,WUHU216HW,2013-06-25 16:52:00,
2013-06-25 12:57:00,94.7,73.8,29.52,NNW,341,0.9,3.6,51,0.00,,,0.00,WUHU216HW,2013-06-25 16:57:00,
2013-06-25 13:02:00,95.0,72.3,29.52,ENE,68,1.1,2.5,48,0.00,,,0.00,WUHU216HW,2013-06-25 17:02:00,
2013-06-25 13:07:00,95.6,73.4,29.51,SSW,204,0.6,2.2,49,0.00,,,0.00,WUHU216HW,2013-06-25 17:07:00,
2013-06-25 13:12:00,96.1,72.6,29.51,WNW,293,2.2,2.2,47,0.00,,,0.00,WUHU216HW,2013-06-25 17:12:00,
2013-06-25 13:17:00,96.1,72.6,29.51,ENE,68,1.3,2.2,47,0.00,,,0.00,WUHU216HW,2013-06-25 17:17:00,
2013-06-25 13:22:00,95.2,71.8,29.51,WSW,248,1.1,2.2,47,0.00,,,0.00,WUHU216HW,2013-06-25 17:22:00,
2013-06-25 13:27:00,95.2,71.8,29.51,SSW,209,1.6,4.0,47,0.00,,,0.00,WUHU216HW,2013-06-25 17:27:00,
2013-06-25 13:32:00,94.7,71.9,29.50,ESE,116,0.6,4.0,48,0.00,,,0.00,WUHU216HW,2013-06-25 17:32:00,
2013-06-25 13:38:00,94.5,71.7,29.50,East,90,1.1,1.3,48,0.00,,,0.00,WUHU216HW,2013-06-25 17:38:00,
2013-06-25 13:43:00,94.1,72.1,29.50,SW,221,1.9,2.2,49,0.00,,,0.00,WUHU216HW,2013-06-25 17:43:00,
2013-06-25 13:48:00,94.3,72.9,29.50,WSW,248,1.3,2.2,50,0.00,,,0.00,WUHU216HW,2013-06-25 17:48:00,
2013-06-25 13:53:00,94.0,72.5,29.49,NW,314,1.1,2.0,50,0.00,,,0.00,WUHU216HW,2013-06-25 17:53:00,
2013-06-25 13:58:00,94.0,72.5,29.49,SSW,199,1.3,2.0,50,0.00,,,0.00,WUHU216HW,2013-06-25 17:58:00,
2013-06-25 14:03:00,93.8,72.4,29.49,WSW,248,1.1,1.6,50,0.00,,,0.00,WUHU216HW,2013-06-25 18:03:00,
2013-06-25 14:08:00,93.8,72.4,29.48,WSW,248,0.2,1.1,50,0.00,,,0.00,WUHU216HW,2013-06-25 18:08:00,
2013-06-25 14:13:00,94.0,73.6,29.48,North,0,1.1,1.8,52,0.00,,,0.00,WUHU216HW,2013-06-25 18:13:00,
2013-06-25 14:18:00,94.0,71.2,29.47,SW,225,0.9,4.0,48,0.00,,,0.00,WUHU216HW,2013-06-25 18:18:00,
2013-06-25 14:23:00,94.1,72.1,29.47,ENE,68,2.5,4.7,49,0.00,,,0.00,WUHU216HW,2013-06-25 18:23:00,
2013-06-25 14:29:00,94.5,72.5,29.47,WSW,255,0.5,4.7,49,0.00,,,0.00,WUHU216HW,2013-06-25 18:29:00,
2013-06-25 14:34:00,94.7,71.9,29.47,SSW,196,1.5,2.9,48,0.00,,,0.00,WUHU216HW,2013-06-25 18:34:00,
2013-06-25 14:38:00,94.5,71.1,29.47,SW,225,3.4,3.4,47,0.00,,,0.00,WUHU216HW,2013-06-25 18:38:00,
2013-06-25 14:44:00,94.1,71.4,29.47,WSW,248,1.1,3.4,48,0.00,,,0.00,WUHU216HW,2013-06-25 18:44:00,
2013-06-25 14:49:00,94.1,71.4,29.47,WSW,248,2.9,3.4,48,0.00,,,0.00,WUHU216HW,2013-06-25 18:49:00,
2013-06-25 14:54:00,94.1,70.7,29.46,ESE,114,0.8,3.4,47,0.00,,,0.00,WUHU216HW,2013-06-25 18:54:00,
2013-06-25 14:59:00,94.0,69.9,29.46,NNW,334,2.4,3.6,46,0.00,,,0.00,WUHU216HW,2013-06-25 18:59:00,
2013-06-25 15:04:00,92.9,70.2,29.46,West,270,2.2,3.6,48,0.00,,,0.00,WUHU216HW,2013-06-25 19:04:00,
2013-06-25 15:09:00,92.5,70.6,29.46,SW,215,2.8,4.5,49,0.00,,,0.00,WUHU216HW,2013-06-25 19:09:00,
2013-06-25 15:14:00,92.5,70.6,29.46,South,188,2.0,4.5,49,0.00,,,0.00,WUHU216HW,2013-06-25 19:14:00,
2013-06-25 15:19:00,92.7,71.9,29.46,WSW,248,1.1,3.6,51,0.00,,,0.00,WUHU216HW,2013-06-25 19:19:00,
2013-06-25 15:24:00,92.9,71.5,29.46,SSE,147,2.2,3.4,50,0.00,,,0.00,WUHU216HW,2013-06-25 19:24:00,
2013-06-25 15:29:00,92.7,71.4,29.45,West,269,0.7,4.0,50,0.00,,,0.00,WUHU216HW,2013-06-25 19:29:00,
2013-06-25 15:34:00,92.2,70.8,29.45,WSW,257,1.4,4.0,50,0.00,,,0.00,WUHU216HW,2013-06-25 19:34:00,
2013-06-25 15:39:00,91.6,70.9,29.45,WSW,248,1.8,3.4,51,0.00,,,0.00,WUHU216HW,2013-06-25 19:39:00,
2013-06-25 15:44:00,91.6,71.5,29.44,WSW,239,1.8,3.4,52,0.00,,,0.00,WUHU216HW,2013-06-25 19:44:00,
2013-06-25 15:49:00,91.6,70.9,29.44,WSW,248,0.9,3.8,51,0.00,,,0.00,WUHU216HW,2013-06-25 19:49:00,
2013-06-25 15:54:00,91.6,70.9,29.43,WSW,245,2.7,3.8,51,0.00,,,0.00,WUHU216HW,2013-06-25 19:54:00,
2013-06-25 15:59:00,91.3,70.6,29.44,South,170,2.0,3.6,51,0.00,,,0.00,WUHU216HW,2013-06-25 19:59:00,
2013-06-25 16:04:00,90.7,70.7,29.44,SSE,163,1.5,2.9,52,0.00,,,0.00,WUHU216HW,2013-06-25 20:04:00,
2013-06-25 16:09:00,90.7,70.7,29.44,SW,224,2.5,3.1,52,0.00,,,0.00,WUHU216HW,2013-06-25 20:09:00,
2013-06-25 16:14:00,90.9,71.4,29.44,SW,220,1.2,3.1,53,0.00,,,0.00,WUHU216HW,2013-06-25 20:14:00,
2013-06-25 16:20:00,91.1,70.9,29.43,WNW,283,1.5,3.1,52,0.00,,,0.00,WUHU216HW,2013-06-25 20:20:00,
2013-06-25 16:25:00,90.9,70.8,29.43,SW,225,2.7,3.4,52,0.00,,,0.00,WUHU216HW,2013-06-25 20:25:00,
2013-06-25 16:30:00,90.5,70.5,29.43,WNW,293,2.0,3.4,52,0.00,,,0.00,WUHU216HW,2013-06-25 20:30:00,
2013-06-25 16:35:00,90.2,70.1,29.43,SW,217,1.5,2.9,52,0.00,,,0.00,WUHU216HW,2013-06-25 20:35:00,
2013-06-25 16:40:00,90.2,70.7,29.43,SW,224,1.4,2.7,53,0.00,,,0.00,WUHU216HW,2013-06-25 20:40:00,
2013-06-25 16:45:00,90.0,70.6,29.43,NW,315,1.1,2.2,53,0.00,,,0.00,WUHU216HW,2013-06-25 20:45:00,
2013-06-25 16:50:00,89.6,70.7,29.43,WSW,248,0.4,3.4,54,0.00,,,0.00,WUHU216HW,2013-06-25 20:50:00,
2013-06-25 16:55:00,89.6,71.3,29.43,WSW,244,0.7,3.4,55,0.00,,,0.00,WUHU216HW,2013-06-25 20:55:00,
2013-06-25 17:00:00,89.3,70.4,29.43,NE,46,1.8,3.4,54,0.00,,,0.00,WUHU216HW,2013-06-25 21:00:00,
2013-06-25 17:05:00,89.1,70.3,29.44,SW,225,0.4,3.4,54,0.00,,,0.00,WUHU216HW,2013-06-25 21:05:00,
2013-06-25 17:10:00,88.9,70.1,29.44,West,270,1.8,2.0,54,0.00,,,0.00,WUHU216HW,2013-06-25 21:10:00,
2013-06-25 17:16:00,88.7,69.9,29.44,SSW,203,1.8,1.8,54,0.00,,,0.00,WUHU216HW,2013-06-25 21:16:00,
2013-06-25 17:21:00,88.6,70.3,29.43,South,174,0.4,1.8,55,0.00,,,0.00,WUHU216HW,2013-06-25 21:21:00,
2013-06-25 17:26:00,88.4,70.1,29.43,North,0,0.7,2.5,55,0.00,,,0.00,WUHU216HW,2013-06-25 21:26:00,
2013-06-25 17:31:00,87.8,70.2,29.43,NW,315,0.3,2.5,56,0.00,,,0.00,WUHU216HW,2013-06-25 21:31:00,
2013-06-25 17:36:00,87.5,70.4,29.42,SW,225,1.3,1.8,57,0.00,,,0.00,WUHU216HW,2013-06-25 21:36:00,
2013-06-25 17:41:00,87.3,70.7,29.43,WSW,248,0.4,1.8,58,0.00,,,0.00,WUHU216HW,2013-06-25 21:41:00,
2013-06-25 17:46:00,86.9,70.4,29.43,ENE,58,0.5,1.6,58,0.00,,,0.00,WUHU216HW,2013-06-25 21:46:00,
2013-06-25 17:51:00,86.8,70.7,29.42,WSW,248,0.4,1.6,59,0.00,,,0.00,WUHU216HW,2013-06-25 21:51:00,
2013-06-25 17:56:00,86.4,70.4,29.42,ENE,58,0.9,1.1,59,0.00,,,0.00,WUHU216HW,2013-06-25 21:56:00,
2013-06-25 18:01:00,86.2,70.2,29.42,SW,225,1.1,1.3,59,0.00,,,0.00,WUHU216HW,2013-06-25 22:01:00,
2013-06-25 18:06:00,85.9,69.8,29.42,WSW,248,0.4,1.3,59,0.00,,,0.00,WUHU216HW,2013-06-25 22:06:00,
2013-06-25 18:11:00,85.5,69.6,29.42,SSW,203,0.4,1.1,59,0.00,,,0.00,WUHU216HW,2013-06-25 22:11:00,
2013-06-25 18:16:00,85.3,69.4,29.41,SW,225,0.4,1.1,59,0.00,,,0.00,WUHU216HW,2013-06-25 22:16:00,
2013-06-25 18:21:00,85.0,70.9,29.42,NNE,23,1.8,1.8,63,0.00,,,0.00,WUHU216HW,2013-06-25 22:21:00,
2013-06-25 18:26:00,84.6,70.7,29.42,SSW,203,0.9,1.8,63,0.00,,,0.00,WUHU216HW,2013-06-25 22:26:00,
2013-06-25 18:31:00,83.5,69.6,29.43,SE,135,1.8,2.5,63,0.00,,,0.00,WUHU216HW,2013-06-25 22:31:00,
2013-06-25 18:36:00,82.6,69.6,29.43,SW,228,1.0,2.5,65,0.00,,,0.00,WUHU216HW,2013-06-25 22:36:00,
2013-06-25 18:42:00,82.1,68.6,29.43,East,90,0.7,2.5,64,0.00,,,0.00,WUHU216HW,2013-06-25 22:42:00,
2013-06-25 18:47:00,81.5,68.6,29.43,ESE,117,0.6,1.1,65,0.00,,,0.00,WUHU216HW,2013-06-25 22:47:00,
2013-06-25 18:52:00,81.0,68.1,29.43,WNW,297,0.5,1.1,65,0.00,,,0.00,WUHU216HW,2013-06-25 22:52:00,
2013-06-25 18:57:00,80.6,68.2,29.46,South,187,1.1,1.6,66,0.00,,,0.00,WUHU216HW,2013-06-25 22:57:00,
2013-06-25 19:02:00,79.9,69.7,29.46,ENE,68,1.1,3.6,71,0.02,,,0.02,WUHU216HW,2013-06-25 23:02:00,
2013-06-25 19:07:00,78.8,69.4,29.46,South,169,1.3,3.6,73,0.04,,,0.04,WUHU216HW,2013-06-25 23:07:00,
2013-06-25 19:12:00,78.3,69.3,29.46,WSW,248,0.7,1.8,74,0.04,,,0.04,WUHU216HW,2013-06-25 23:12:00,
2013-06-25 19:17:00,76.3,67.8,29.45,SW,223,0.9,2.0,75,0.04,,,0.04,WUHU216HW,2013-06-25 23:17:00,
2013-06-25 19:22:00,75.6,68.0,29.45,ESE,113,0.5,2.0,77,0.05,,,0.05,WUHU216HW,2013-06-25 23:22:00,
2013-06-25 19:28:00,75.1,67.8,29.45,SSE,151,0.5,1.1,78,0.05,,,0.05,WUHU216HW,2013-06-25 23:28:00,
2013-06-25 19:33:00,74.5,67.2,29.44,SE,135,0.4,0.7,78,0.06,,,0.06,WUHU216HW,2013-06-25 23:33:00,
2013-06-25 19:38:00,74.3,67.5,29.44,East,90,0.4,0.4,79,0.06,,,0.06,WUHU216HW,2013-06-25 23:38:00,
2013-06-25 19:43:00,73.8,67.0,29.43,ESE,113,0.4,0.7,79,0.06,,,0.06,WUHU216HW,2013-06-25 23:43:00,
2013-06-25 19:48:00,73.6,67.1,29.44,ESE,122,0.3,0.7,80,0.06,,,0.06,WUHU216HW,2013-06-25 23:48:00,
2013-06-25 19:53:00,73.6,67.1,29.44,SSW,203,0.2,0.4,80,0.06,,,0.06,WUHU216HW,2013-06-25 23:53:00,
2013-06-25 19:58:00,73.3,67.2,29.44,WSW,248,0.5,0.9,81,0.07,,,0.07,WUHU216HW,2013-06-25 23:58:00,
2013-06-25 20:03:00,73.3,67.2,29.45,WSW,248,0.0,0.9,81,0.05,,,0.07,WUHU216HW,2013-06-26 00:03:00,
2013-06-25 20:08:00,73.1,67.0,29.45,WSW,248,0.0,0.4,81,0.03,,,0.07,WUHU216HW,2013-06-26 00:08:00,
2013-06-25 20:13:00,72.9,67.4,29.45,West,263,0.7,1.1,83,0.03,,,0.07,WUHU216HW,2013-06-26 00:13:00,
2013-06-25 20:18:00,72.7,67.2,29.46,WSW,248,0.7,1.1,83,0.02,,,0.07,WUHU216HW,2013-06-26 00:18:00,
2013-06-25 20:23:00,72.5,67.1,29.46,WSW,248,0.4,1.3,83,0.02,,,0.07,WUHU216HW,2013-06-26 00:23:00,
2013-06-25 20:29:00,72.4,67.2,29.45,West,270,0.6,1.3,84,0.02,,,0.07,WUHU216HW,2013-06-26 00:29:00,
2013-06-25 20:34:00,72.2,67.1,29.45,West,270,0.0,1.1,84,0.01,,,0.07,WUHU216HW,2013-06-26 00:34:00,
2013-06-25 20:39:00,72.2,67.1,29.45,West,270,0.2,0.4,84,0.02,,,0.08,WUHU216HW,2013-06-26 00:39:00,
2013-06-25 20:44:00,72.0,66.9,29.45,West,270,0.0,0.2,84,0.02,,,0.08,WUHU216HW,2013-06-26 00:44:00,
2013-06-25 20:49:00,72.0,66.9,29.45,West,270,1.1,1.1,84,0.02,,,0.08,WUHU216HW,2013-06-26 00:49:00,
2013-06-25 20:54:00,72.0,67.2,29.45,West,270,0.0,1.1,85,0.02,,,0.08,WUHU216HW,2013-06-26 00:54:00,
2013-06-25 20:59:00,71.8,67.1,29.44,West,270,0.0,1.1,85,0.01,,,0.08,WUHU216HW,2013-06-26 00:59:00,
2013-06-25 21:04:00,71.8,66.7,29.44,West,270,0.0,0.0,84,0.01,,,0.08,WUHU216HW,2013-06-26 01:04:00,
2013-06-25 21:09:00,71.8,66.7,29.43,West,270,0.0,0.0,84,0.01,,,0.08,WUHU216HW,2013-06-26 01:09:00,
2013-06-25 21:15:00,71.8,67.1,29.43,West,270,0.2,0.2,85,0.01,,,0.08,WUHU216HW,2013-06-26 01:15:00,
2013-06-25 21:20:00,71.6,66.9,29.43,West,270,0.0,0.2,85,0.01,,,0.08,WUHU216HW,2013-06-26 01:20:00,
2013-06-25 21:25:00,71.6,67.2,29.43,West,270,0.0,0.0,86,0.01,,,0.08,WUHU216HW,2013-06-26 01:25:00,
2013-06-25 21:30:00,71.6,67.2,29.43,West,270,0.0,0.0,86,0.01,,,0.08,WUHU216HW,2013-06-26 01:30:00,
2013-06-25 21:35:00,71.5,67.1,29.43,West,270,0.0,0.0,86,0.01,,,0.08,WUHU216HW,2013-06-26 01:35:00,
2013-06-25 21:40:00,71.5,67.1,29.43,West,270,0.0,0.0,86,0.00,,,0.08,WUHU216HW,2013-06-26 01:40:00,
2013-06-25 21:45:00,71.5,67.4,29.43,West,270,0.0,0.0,87,0.00,,,0.08,WUHU216HW,2013-06-26 01:45:00,
2013-06-25 21:50:00,71.3,67.2,29.43,West,270,0.0,0.0,87,0.00,,,0.08,WUHU216HW,2013-06-26 01:50:00,
2013-06-25 21:55:00,71.3,67.5,29.43,West,270,0.4,0.7,88,0.00,,,0.08,WUHU216HW,2013-06-26 01:55:00,
2013-06-25 22:00:00,71.3,67.5,29.43,West,270,0.0,0.7,88,0.00,,,0.08,WUHU216HW,2013-06-26 02:00:00,
2013-06-25 22:06:00,71.1,67.3,29.43,West,270,0.2,0.2,88,0.00,,,0.08,WUHU216HW,2013-06-26 02:06:00,
2013-06-25 22:11:00,71.1,67.3,29.44,West,270,0.0,0.2,88,0.00,,,0.08,WUHU216HW,2013-06-26 02:11:00,
2013-06-25 22:16:00,70.9,67.1,29.44,West,270,0.0,0.0,88,0.00,,,0.08,WUHU216HW,2013-06-26 02:16:00,
2013-06-25 22:21:00,70.9,67.1,29.43,West,270,0.4,0.4,88,0.00,,,0.08,WUHU216HW,2013-06-26 02:21:00,
2013-06-25 22:26:00,70.9,67.1,29.44,West,270,0.0,0.4,88,0.00,,,0.08,WUHU216HW,2013-06-26 02:26:00,
2013-06-25 22:31:00,70.9,67.1,29.44,West,270,0.0,0.0,88,0.00,,,0.08,WUHU216HW,2013-06-26 02:31:00,
2013-06-25 22:37:00,70.7,67.0,29.44,West,270,0.0,0.0,88,0.00,,,0.08,WUHU216HW,2013-06-26 02:37:00,
2013-06-25 22:42:00,70.7,67.0,29.44,West,270,0.0,0.0,88,0.00,,,0.08,WUHU216HW,2013-06-26 02:42:00,
2013-06-25 22:47:00,70.7,67.0,29.44,West,270,0.0,0.0,88,0.00,,,0.08,WUHU216HW,2013-06-26 02:47:00,
2013-06-25 22:52:00,70.6,66.8,29.44,West,270,0.0,0.0,88,0.00,,,0.08,WUHU216HW,2013-06-26 02:52:00,
2013-06-25 22:57:00,70.6,66.8,29.44,West,270,0.0,0.0,88,0.00,,,0.08,WUHU216HW,2013-06-26 02:57:00,
2013-06-25 23:02:00,70.4,66.6,29.43,West,270,0.0,0.0,88,0.00,,,0.08,WUHU216HW,2013-06-26 03:02:00,
2013-06-25 23:07:00,70.4,66.6,29.43,West,270,0.0,0.0,88,0.00,,,0.08,WUHU216HW,2013-06-26 03:07:00,
2013-06-25 23:12:00,70.2,66.4,29.43,West,270,0.0,0.0,88,0.00,,,0.08,WUHU216HW,2013-06-26 03:12:00,
2013-06-25 23:17:00,70.2,66.4,29.44,West,270,0.0,0.0,88,0.00,,,0.08,WUHU216HW,2013-06-26 03:17:00,
2013-06-25 23:22:00,70.0,66.2,29.43,West,270,0.0,0.0,88,0.00,,,0.08,WUHU216HW,2013-06-26 03:22:00,
2013-06-25 23:27:00,69.8,66.1,29.43,West,270,0.0,0.0,88,0.00,,,0.08,WUHU216HW,2013-06-26 03:27:00,
2013-06-25 23:33:00,69.8,66.1,29.43,West,270,0.0,0.0,88,0.00,,,0.08,WUHU216HW,2013-06-26 03:33:00,
2013-06-25 23:38:00,69.7,65.9,29.43,West,270,0.0,0.0,88,0.00,,,0.08,WUHU216HW,2013-06-26 03:38:00,
2013-06-25 23:43:00,69.7,66.2,29.43,West,270,0.0,0.0,89,0.00,,,0.08,WUHU216HW,2013-06-26 03:43:00,
2013-06-25 23:48:00,69.5,66.1,29.43,West,270,0.0,0.0,89,0.00,,,0.08,WUHU216HW,2013-06-26 03:48:00,
2013-06-25 23:53:00,69.5,66.1,29.43,West,270,0.0,0.0,89,0.00,,,0.08,WUHU216HW,2013-06-26 03:53:00,
2013-06-25 23:58:00,69.5,66.1,29.43,West,270,0.0,0.0,89,0.00,,,0.08,WUHU216HW,2013-06-26 03:58:00,